Location: Peebles
(55.6412°N, 3.1714°W)
Time: 08:59:57
(UTC+01:00)

CZ-4C R/B - Pass Details

Date: 26 September 2021
Orbit: 405 x 482 km, 97.7° (Epoch: 20 October)

Event Time Altitude Azimuth Distance (km) Brightness Sun altitude
Rises 19:38:38 0° 15° (NNE) 2,556 6.6 -6.2°
Reaches altitude 10° 19:40:42 10° 16° (NNE) 1,676 5.7 -6.5°
Maximum altitude 19:44:19 83° 104° (ESE) 496 3.0 -7.0°
Drops below altitude 10° 19:47:55 10° 194° (SSW) 1,664 5.9 -7.5°
Sets 19:49:58 0° 195° (SSW) 2,535 6.8 -7.8°
